Tiempo cada hora Brasília

Hoy, 25 Octubre, Domingo

Tiempo Temperatura Precipitaciones Viento Presión Humedad
00:00 +19°C° 0.1 mm 2 mps 664 mmHg 91%
01:00 +19°C° 0 mm 2 mps 663 mmHg 90%
02:00 +19°C° 0 mm 2 mps 663 mmHg 89%
03:00 +19°C° 0 mm 2 mps 662 mmHg 88%
04:00 +19°C° 0.1 mm 2 mps 663 mmHg 88%
05:00 +19°C° 0.1 mm 2 mps 663 mmHg 88%
06:00 +19°C° 0.1 mm 2 mps 663 mmHg 89%
07:00 +20°C° 0.3 mm 3 mps 664 mmHg 84%
08:00 +22°C° 0.3 mm 4 mps 664 mmHg 80%
09:00 +23°C° 0.3 mm 5 mps 665 mmHg 76%
10:00 +25°C° 0.7 mm 5 mps 665 mmHg 73%
11:00 +26°C° 0.7 mm 5 mps 665 mmHg 70%
12:00 +27°C° 0.7 mm 5 mps 665 mmHg 67%
13:00 +27°C° 0.6 mm 5 mps 664 mmHg 66%
14:00 +27°C° 0.6 mm 5 mps 663 mmHg 66%
15:00 +27°C° 0.6 mm 5 mps 663 mmHg 66%
16:00 +26°C° 0.4 mm 4 mps 663 mmHg 71%
17:00 +25°C° 0.4 mm 3 mps 663 mmHg 75%
18:00 +24°C° 0.4 mm 3 mps 662 mmHg 80%
19:00 +23°C° 0.4 mm 2 mps 663 mmHg 83%
20:00 +23°C° 0.4 mm 2 mps 663 mmHg 86%
21:00 +21°C° 0.4 mm 2 mps 663 mmHg 88%
22:00 +21°C° 0 mm 2 mps 663 mmHg 88%
23:00 +21°C° 0 mm 2 mps 663 mmHg 87%

Mañana, 26 Octubre, Lunes

Tiempo Temperatura Precipitaciones Viento Presión Humedad
00:00 +20°C° 0 mm 2 mps 662 mmHg 86%
01:00 +20°C° 0.1 mm 2 mps 662 mmHg 86%
02:00 +20°C° 0.1 mm 2 mps 662 mmHg 87%
03:00 +21°C° 0.1 mm 1 mps 661 mmHg 88%
04:00 +21°C° 0.1 mm 1 mps 662 mmHg 88%
05:00 +21°C° 0.1 mm 1 mps 662 mmHg 88%
06:00 +21°C° 0.1 mm 1 mps 662 mmHg 88%
07:00 +23°C° 0.2 mm 2 mps 663 mmHg 81%
08:00 +25°C° 0.2 mm 2 mps 664 mmHg 73%
09:00 +27°C° 0.2 mm 3 mps 665 mmHg 65%
10:00 +27°C° 0.6 mm 3 mps 665 mmHg 64%
11:00 +28°C° 0.6 mm 3 mps 664 mmHg 63%
12:00 +28°C° 0.6 mm 3 mps 664 mmHg 62%
13:00 +28°C° 1.4 mm 3 mps 664 mmHg 64%
14:00 +27°C° 1.4 mm 4 mps 663 mmHg 65%
15:00 +27°C° 1.4 mm 4 mps 663 mmHg 67%
16:00 +26°C° 2.1 mm 3 mps 662 mmHg 72%
17:00 +25°C° 2.1 mm 2 mps 662 mmHg 76%
18:00 +24°C° 2.1 mm 2 mps 662 mmHg 80%
19:00 +23°C° 0.1 mm 2 mps 662 mmHg 81%
20:00 +23°C° 0.1 mm 1 mps 662 mmHg 82%
21:00 +22°C° 0.1 mm 1 mps 663 mmHg 83%
22:00 +22°C° 0 mm 1 mps 663 mmHg 82%
23:00 +22°C° 0 mm 1 mps 663 mmHg 82%

Pasado mañana, 27 Octubre, Martes

Tiempo Temperatura Precipitaciones Viento Presión Humedad
00:00 +22°C° 0 mm 1 mps 663 mmHg 81%
01:00 +22°C° 0 mm 1 mps 662 mmHg 81%
02:00 +20°C° 0 mm 0 mps 662 mmHg 82%
03:00 +20°C° 0 mm 0 mps 661 mmHg 82%
04:00 +20°C° 0 mm 0 mps 661 mmHg 83%
05:00 +21°C° 0 mm 1 mps 661 mmHg 85%
06:00 +21°C° 0 mm 1 mps 662 mmHg 86%
07:00 +23°C° 0 mm 1 mps 662 mmHg 80%
08:00 +25°C° 0 mm 1 mps 663 mmHg 73%
09:00 +26°C° 0 mm 2 mps 664 mmHg 67%
10:00 +27°C° 1 mm 2 mps 664 mmHg 65%
11:00 +28°C° 1 mm 3 mps 663 mmHg 62%
12:00 +29°C° 1 mm 3 mps 663 mmHg 59%
13:00 +28°C° 1.7 mm 3 mps 663 mmHg 61%
14:00 +28°C° 1.7 mm 3 mps 662 mmHg 64%
15:00 +28°C° 1.7 mm 3 mps 661 mmHg 66%
16:00 +26°C° 1.9 mm 3 mps 661 mmHg 71%
17:00 +25°C° 1.9 mm 2 mps 661 mmHg 75%
18:00 +24°C° 1.9 mm 2 mps 661 mmHg 80%
19:00 +23°C° 0.1 mm 2 mps 661 mmHg 80%
20:00 +23°C° 0.1 mm 1 mps 661 mmHg 81%
21:00 +23°C° 0.1 mm 1 mps 662 mmHg 81%
22:00 +23°C° 0.1 mm 1 mps 662 mmHg 81%
23:00 +22°C° 0.1 mm 1 mps 662 mmHg 81%

28 Octubre, Miércoles

Tiempo Temperatura Precipitaciones Viento Presión Humedad
00:00 +22°C° 0.1 mm 1 mps 662 mmHg 82%
01:00 +22°C° 0.1 mm 1 mps 661 mmHg 82%
02:00 +22°C° 0.1 mm 1 mps 661 mmHg 82%
03:00 +22°C° 0.1 mm 1 mps 661 mmHg 82%
04:00 +22°C° 0.4 mm 1 mps 661 mmHg 84%
05:00 +22°C° 0.4 mm 1 mps 662 mmHg 86%
06:00 +21°C° 0.4 mm 1 mps 662 mmHg 89%
07:00 +22°C° 0.4 mm 1 mps 662 mmHg 85%
08:00 +23°C° 0.4 mm 1 mps 663 mmHg 81%
09:00 +24°C° 0.4 mm 1 mps 664 mmHg 77%
10:00 +25°C° 0.1 mm 1 mps 663 mmHg 74%
11:00 +26°C° 0.1 mm 2 mps 663 mmHg 71%
12:00 +27°C° 0.1 mm 3 mps 663 mmHg 68%
13:00 +27°C° 0.5 mm 3 mps 663 mmHg 66%
14:00 +28°C° 0.5 mm 3 mps 662 mmHg 64%
15:00 +29°C° 0.5 mm 3 mps 662 mmHg 62%
16:00 +27°C° 1.9 mm 2 mps 661 mmHg 67%
17:00 +26°C° 1.9 mm 2 mps 661 mmHg 72%
18:00 +25°C° 1.9 mm 2 mps 660 mmHg 78%
19:00 +24°C° 0.6 mm 2 mps 661 mmHg 80%
20:00 +23°C° 0.6 mm 1 mps 661 mmHg 83%
21:00 +23°C° 0.6 mm 1 mps 662 mmHg 85%
22:00 +23°C° 0.2 mm 1 mps 662 mmHg 85%
23:00 +22°C° 0.2 mm 1 mps 662 mmHg 85%

29 Octubre, Jueves

Tiempo Temperatura Precipitaciones Viento Presión Humedad
00:00 +22°C° 0.2 mm 1 mps 662 mmHg 85%
01:00 +22°C° 0 mm 1 mps 662 mmHg 84%
02:00 +22°C° 0 mm 1 mps 661 mmHg 84%
03:00 +22°C° 0 mm 1 mps 661 mmHg 84%
04:00 +22°C° 0 mm 1 mps 662 mmHg 84%
05:00 +22°C° 0 mm 1 mps 662 mmHg 84%
06:00 +22°C° 0 mm 1 mps 662 mmHg 84%
07:00 +23°C° 0 mm 1 mps 663 mmHg 82%
08:00 +24°C° 0 mm 2 mps 664 mmHg 79%
09:00 +25°C° 0 mm 2 mps 665 mmHg 76%
10:00 +26°C° 0.7 mm 2 mps 664 mmHg 71%
11:00 +27°C° 0.7 mm 3 mps 664 mmHg 66%
12:00 +28°C° 0.7 mm 4 mps 664 mmHg 62%
13:00 +28°C° 1.4 mm 3 mps 664 mmHg 62%
14:00 +28°C° 1.4 mm 3 mps 663 mmHg 63%
15:00 +28°C° 1.4 mm 2 mps 663 mmHg 63%
16:00 +27°C° 1.5 mm 2 mps 663 mmHg 68%
17:00 +25°C° 1.5 mm 2 mps 663 mmHg 74%
18:00 +24°C° 1.5 mm 2 mps 663 mmHg 79%
19:00 +24°C° 0.6 mm 2 mps 663 mmHg 79%
20:00 +23°C° 0.6 mm 1 mps 663 mmHg 79%
21:00 +23°C° 0.6 mm 1 mps 664 mmHg 80%
22:00 +23°C° 0.3 mm 1 mps 664 mmHg 81%
23:00 +23°C° 0.3 mm 1 mps 664 mmHg 83%

30 Octubre, Viernes

Tiempo Temperatura Precipitaciones Viento Presión Humedad
00:00 +22°C° 0.3 mm 1 mps 664 mmHg 85%
01:00 +22°C° 1.2 mm 1 mps 664 mmHg 85%
02:00 +22°C° 1.2 mm 1 mps 663 mmHg 85%
03:00 +22°C° 1.2 mm 1 mps 663 mmHg 85%
04:00 +22°C° 0.5 mm 1 mps 663 mmHg 87%
05:00 +22°C° 0.5 mm 1 mps 664 mmHg 89%
06:00 +21°C° 0.5 mm 1 mps 664 mmHg 90%
07:00 +22°C° 0.6 mm 1 mps 665 mmHg 88%
08:00 +23°C° 0.6 mm 2 mps 665 mmHg 86%
09:00 +23°C° 0.6 mm 2 mps 666 mmHg 84%
10:00 +24°C° 0.8 mm 2 mps 666 mmHg 82%
11:00 +24°C° 0.8 mm 3 mps 665 mmHg 80%
12:00 +25°C° 0.8 mm 3 mps 665 mmHg 78%
13:00 +25°C° 0.9 mm 3 mps 665 mmHg 78%
14:00 +25°C° 0.9 mm 3 mps 664 mmHg 79%
15:00 +24°C° 0.9 mm 3 mps 664 mmHg 80%
16:00 +24°C° 0.5 mm 3 mps 664 mmHg 82%
17:00 +23°C° 0.5 mm 2 mps 664 mmHg 84%
18:00 +23°C° 0.5 mm 1 mps 664 mmHg 86%
19:00 +23°C° 0.1 mm 1 mps 664 mmHg 86%
20:00 +22°C° 0.1 mm 1 mps 665 mmHg 87%
21:00 +22°C° 0.1 mm 1 mps 665 mmHg 87%
22:00 +22°C° 0.1 mm 1 mps 665 mmHg 87%
23:00 +22°C° 0.1 mm 1 mps 665 mmHg 86%
Mostrar más

Necesitamos Su Consentimiento

Meteoprog y nuestros Proveedores de Servicios pueden almacenar y acceder a sus datos personales como cookies, identificadores de dispositivo u otras tecnologías similares de su dispositivo y procesar dichos datos para personalizar contenido y anuncios, además de ofrecer funciones de redes sociales y analizar el tráfico.

  • Almacenar y/o acceder a información en su dispositivo

    Se puede almacenar o acceder a cookies, identificadores de dispositivo u otra información de su dispositivo para los fines anteriormente indicados.

  • Anuncios y contenido personalizados, medición de anuncios y contenido, percepciones del público, y desarrollo de productos

    Los anuncios y el contenido pueden personalizarse en base a su perfil. Se pueden añadir más datos para personalizar mejor los anuncios y contenidos. Se puede medir el rendimiento de los anuncios y contenidos. Se puede obtener la percepción sobre el público que ha visto los anuncios y contenidos. Dichos datos pueden usarse para desarrollar o mejorar la experiencia del usuario, sistemas y software.

Al hacer clic en ‘Estoy De Acuerdo’ usted permitirá el uso de las cookies, identificadores de dispositivo, balizas web u otras tecnologías similares indicadas. Su configuración puede cambiarse desde el navegador de su dispositivo.

Para ciertos fines, los intereses legítimos pueden ser considerados por encima del consentimiento. Puede leer más sobre ello en nuestra Política de Privacidad y Cookies.